www.pogodaiklimat.ru

Погода и климат >> Архив погоды >> Норвегия >> Конгсёйа


ПОГОДА на Конгсёйа

  • Прогноз погоды на Конгсёйа
  • Монитор погоды на Конгсёйа

АРХИВ ПОГОДЫ на Конгсёйа

Время (UTC), дата Ветер
(напр.,м/с)
 
Видим.   Явления Облачность Т
(С)
Тd
(С)
f
(%)
Тe
(С)
Тes
(С)
Комфортность P
(гПа)
Po
(гПа)
Тmin
(С)
Tmax
(С)
R
(мм)
R24
(мм)
S
(см)
19 19.03 штиль 0
{2}
н/о н/о -12.5 -15.8 76 -13 -13 1008.4 1006.7
20 19.03 ЮВ 3
{3}
н/о н/о -11.1 -15.2 72 -17 -17 1008.3 1006.6
21 19.03 ЮВ 6
{6}
н/о н/о -12.3 -15.2 79 -21 -21 1007.6 1006.0
22 19.03 ЮВ 5
{6}
н/о н/о -13.4 -15.3 86 -22 -22 1007.2 1005.5
23 19.03 ЮВ 6
{6}
н/о н/о -12.1 -14.1 85 -21 -21 1006.0 1004.4
00 20.03 ЮВ 8
{9}
н/о н/о -10.2 -12.4 84 -20 -20 1004.8 1003.2
01 20.03 ЮВ 11
{14}
н/о н/о -8.0 -9.2 91 -19 -19 1003.4 1001.8
02 20.03 ЮВ 10
{13}
н/о н/о -7.0 -8.2 91 -17 -17 1003.0 1001.4
03 20.03 ЮВ 9
{11}
н/о н/о -6.1 -7.7 88 -16 -16 1002.5 1000.9
04 20.03 Ю 7
{10}
н/о н/о -6.6 -8.3 88 -15 -15 1002.0 1000.4
05 20.03 Ю 8
{10}
н/о н/о -6.7 -8.6 86 -16 -16 1001.4 999.8
06 20.03 Ю 10
{14}
н/о н/о -5.9 -7.8 86 -16 -16 1000.6 999.0 -14.9 -5.8
07 20.03 Ю 13
{14}
н/о н/о -4.9 -7.6 81 -15 -15 999.7 998.1
08 20.03 Ю 12
{16}
н/о н/о -5.1 -7.5 83 -15 -15 999.3 997.7
09 20.03 Ю 14
{16}
н/о н/о -5.7 -6.8 92 -17 -17 998.8 997.2
10 20.03 Ю 14
{16}
н/о н/о -5.4 -6.4 93 -17 -17 998.2 996.6
11 20.03 Ю 14
{17}
н/о н/о -5.1 -6.1 93 -16 -16 998.2 996.6
12 20.03 Ю 14
{17}
н/о н/о -4.9 -6.0 92 -16 -16 997.9 996.3
13 20.03 Ю 15
{17}
н/о н/о -4.5 -5.9 90 -16 -16 997.6 996.0
14 20.03 Ю 13
{16}
н/о н/о -4.8 -6.0 91 -15 -15 997.9 996.3
16 20.03 Ю 13
{15}
н/о н/о -4.6 -6.2 89 -15 -15 997.9 996.3
17 20.03 Ю 13
{15}
н/о н/о -4.7 -6.1 90 -15 -15 997.5 995.9
18 20.03 Ю 13 н/о н/о -4.5 -5.9 90 -15 -15 997.1 995.5
19 20.03 Ю 13
{16}
н/о н/о -4.3 -5.4 92 -15 -15 996.8 995.2
20 20.03 Ю 13
{15}
н/о н/о -4.3 -5.5 91 -15 -15 996.8 995.2
21 20.03 Ю 13
{15}
н/о н/о -4.3 -5.5 91 -15 -15 996.4 994.8
22 20.03 Ю 12
{14}
н/о н/о -4.0 -5.6 89 -14 -14 996.4 994.8
23 20.03 Ю 13
{15}
н/о н/о -3.9 -5.7 87 -14 -14 996.1 994.5
00 21.03 Ю 12
{16}
н/о н/о -4.1 -5.6 89 -14 -14 995.9 994.3
01 21.03 Ю 12
{15}
н/о н/о -4.2 -5.6 90 -14 -14 995.7 994.1
02 21.03 Ю 14
{16}
н/о н/о -4.2 -5.7 89 -15 -15 995.3 993.7
03 21.03 ЮВ 11
{13}
н/о н/о -4.1 -5.6 89 -14 -14 995.2 993.6
04 21.03 Ю 12
{13}
н/о н/о -4.2 -5.4 91 -14 -14 994.7 993.1
05 21.03 ЮВ 11
{13}
н/о н/о -4.2 -5.4 91 -14 -14 994.2 992.6
06 21.03 ЮВ 13
{16}
н/о н/о -4.4 -5.2 94 -15 -15 993.6 992.0 -4.5 -3.8
07 21.03 ЮВ 13
{15}
н/о н/о -4.1 -4.9 94 -15 -15 993.2 991.7
08 21.03 ЮВ 12
{14}
н/о н/о -3.7 -4.5 94 -14 -14 993.0 991.4
10 21.03 ЮВ 14
{16}
н/о н/о -3.2 -3.9 95 -14 -14 992.0 990.5
11 21.03 ЮВ 13
{16}
н/о н/о -2.9 -3.6 95 -13 -13 991.3 989.8
12 21.03 ЮВ 14 н/о н/о -2.6 -3.3 95 -13 -13 990.4 988.8
13 21.03 ЮВ 13
{15}
н/о н/о -2.6 -3.2 96 -13 -13 989.9 988.4
14 21.03 Ю 14
{16}
н/о н/о -2.4 -3.0 96 -13 -13 989.4 987.9
15 21.03 Ю 13
{15}
н/о н/о -2.2 -2.8 96 -12 -12 989.1 987.5
17 21.03 Ю 9
{12}
н/о н/о -2.0 -2.5 96 -11 -11 988.8 987.2
18 21.03 Ю 7
{16}
н/о н/о -2.1 -2.5 97 -10 -10 988.8 987.3
19 21.03 Ю 6
{7}
н/о н/о -2.6 -3.0 97 -10 -10 988.7 987.2
20 21.03 ЮЗ 4
{6}
н/о н/о -2.8 -3.2 97 -9 -9 988.9 987.3
21 21.03 Ю 4
{5}
н/о н/о -3.6 -4.1 96 -10 -10 988.7 987.1
22 21.03 Ю 4
{5}
н/о н/о -3.8 -4.4 96 -10 -10 988.4 986.8
23 21.03 ЮЗ 5
{7}
н/о н/о -4.4 -5.1 95 -12 -12 988.0 986.5
01 22.03 Ю 4
{4}
н/о н/о -4.0 -4.6 96 -10 -10 986.9 985.3
02 22.03 Ю 3
{5}
н/о н/о -4.9 -5.9 93 -11 -11 986.3 984.7
03 22.03 ЮВ 4
{4}
н/о н/о -4.4 -5.5 92 -11 -11 985.6 984.0
04 22.03 В 3
{5}
н/о н/о -4.0 -4.7 95 -10 -10 984.4 982.9
05 22.03 В 6
{6}
н/о н/о -3.7 -4.4 95 -11 -11 982.8 981.3
06 22.03 В 4
{6}
н/о н/о -3.0 -3.6 96 -9 -9 981.9 980.3 -4.9 -2.2
07 22.03 Ю 6
{7}
н/о н/о -2.0 -2.5 96 -9 -9 981.3 979.8
08 22.03 Ю 8
{10}
н/о н/о -2.3 -2.8 96 -11 -11 981.0 979.4
09 22.03 Ю 7
{11}
н/о н/о -2.7 -3.2 96 -11 -11 981.1 979.5
10 22.03 Ю 12
{14}
н/о н/о -3.8 -5.2 90 -14 -14 980.9 979.4
11 22.03 Ю 11
{13}
н/о н/о -4.5 -5.9 90 -14 -14 981.6 980.0
12 22.03 Ю 9
{14}
н/о н/о -5.5 -6.6 92 -15 -15 981.6 980.0
13 22.03 Ю 8
{10}
н/о н/о -5.9 -7.2 91 -15 -15 981.7 980.1
14 22.03 Ю 8
{9}
н/о н/о -7.0 -8.2 91 -16 -16 981.7 980.2
15 22.03 Ю 7
{8}
н/о н/о -8.1 -9.3 91 -17 -17 981.8 980.2
16 22.03 Ю 7
{7}
н/о н/о -9.1 -10.2 92 -18 -18 981.5 979.9
17 22.03 Ю 6
{7}
н/о н/о -8.5 -9.3 94 -17 -17 981.2 979.6
18 22.03 Ю 8
{10}
н/о н/о -7.5 -8.6 92 -17 -17 980.5 978.9 -10.2 -1.7
19 22.03 Ю 5
{10}
н/о н/о -7.4 -8.3 93 -15 -15 980.5 979.0
20 22.03 Ю 4
{7}
н/о н/о -6.7 -7.9 91 -13 -13 980.5 979.0
21 22.03 ЮЗ 5
{7}
н/о н/о -6.4 -7.5 92 -14 -14 980.5 979.0
22 22.03 Ю 8
{9}
н/о н/о -6.3 -7.4 92 -15 -15 980.2 978.6
23 22.03 Ю 5
{8}
н/о н/о -6.3 -7.3 93 -14 -14 979.9 978.4
00 23.03 ЮЗ 3
{10}
н/о н/о -6.3 -7.1 94 -12 -12 980.0 978.4
01 23.03 З 1
{3}
н/о н/о -6.7 -7.5 94 -9 -9 980.0 978.5
03 23.03 З 3
{4}
н/о н/о -8.1 -9.0 93 -14 -14 980.1 978.5
04 23.03 З 4
{6}
н/о н/о -9.0 -9.8 94 -16 -16 980.3 978.8
05 23.03 ЮВ 1
{6}
н/о н/о -9.4 -10.3 93 -12 -12 980.4 978.8
06 23.03 ЮЗ 1 н/о н/о -9.9 -11.1 91 -12 -12 980.6 979.0
07 23.03 ЮЗ 5
{5}
н/о н/о -8.3 -9.2 93 -16 -16 980.4 978.8
08 23.03 З 3
{4}
н/о н/о -8.0 -9.1 92 -14 -14 980.4 978.8
09 23.03 СЗ 3
{4}
н/о н/о -7.5 -8.7 91 -13 -13 980.5 978.9
10 23.03 ЮЗ 2
{3}
н/о н/о -7.5 -9.0 89 -12 -12 980.6 979.0
11 23.03 Ю 2
{3}
н/о н/о -7.1 -8.6 89 -12 -12 980.4 978.8
12 23.03 Ю 2
{5}
н/о н/о -6.9 -8.2 90 -11 -11 980.1 978.5
13 23.03 Ю 3
{4}
н/о н/о -6.8 -8.1 90 -13 -13 980.3 978.7
14 23.03 штиль 0
{3}
н/о н/о -6.5 -7.7 91 -7 -7 980.3 978.7
15 23.03 штиль 0
{1}
н/о н/о -7.2 -8.5 90 -8 -8 980.0 978.4
16 23.03 С 1
{2}
н/о н/о -8.5 -9.6 92 -11 -11 979.8 978.2
17 23.03 С 1
{1}
н/о н/о -7.8 -8.9 92 -10 -10 979.8 978.2
18 23.03 С 3
{4}
н/о н/о -7.8 -8.9 92 -14 -14 979.7 978.1 -10.6 -6.3
19 23.03 С 5
{6}
н/о н/о -7.1 -8.6 89 -15 -15 979.6 978.0
20 23.03 СВ 7
{8}
н/о н/о -6.8 -7.9 92 -16 -16 979.5 978.0
21 23.03 СВ 8
{9}
н/о н/о -7.1 -8.3 91 -16 -16 979.5 978.0
22 23.03 СВ 9
{11}
н/о н/о -7.2 -8.5 90 -17 -17 979.6 978.0
23 23.03 СВ 10
{11}
н/о н/о -7.3 -8.8 89 -18 -18 979.4 977.9
00 24.03 СВ 11
{13}
н/о н/о -7.3 -8.8 89 -18 -18 979.2 977.6
01 24.03 С 12
{14}
н/о н/о -7.1 -8.3 91 -18 -18 979.0 977.5
02 24.03 С 16
{17}
н/о н/о -7.8 -8.9 92 -20 -20 979.1 977.6
03 24.03 С 15
{18}
н/о н/о -7.8 -9.0 91 -20 -20 979.4 977.8
04 24.03 С 16
{18}
н/о н/о -8.2 -9.4 91 -21 -21 979.4 977.8
05 24.03 С 16
{18}
н/о н/о -8.2 -9.4 91 -21 -21 979.6 978.0
06 24.03 С 17
{20}
н/о н/о -8.3 -9.6 90 -21 -21 979.7 978.1 -8.4 -6.6
07 24.03 С 17
{19}
н/о н/о -8.7 -10.0 90 -22 -22 980.0 978.4
08 24.03
{20}
н/о н/о -9.1 -10.4 90 980.4 978.8
10 24.03
{23}
н/о н/о -10.6 -12.3 87 980.7 979.2
11 24.03
{22}
н/о н/о -11.3 -13.0 87 981.3 979.7
12 24.03 н/о н/о -11.4 -13.1 87 981.5 979.9
13 24.03
{21}
н/о н/о -10.8 -12.2 89 981.9 980.3
14 24.03
{21}
н/о н/о -10.3 -11.9 88 982.0 980.5
15 24.03 С 14
{19}
н/о н/о -10.1 -11.5 89 -22 -22 982.6 981.0
16 24.03 С 14
{17}
н/о н/о -10.3 -11.9 88 -23 -23 983.0 981.4
17 24.03 С 11
{15}
н/о н/о -10.4 -11.8 89 -22 -22 983.6 982.0
18 24.03 С 10
{21}
н/о н/о -10.5 -11.9 89 -21 -21 983.8 982.2
19 24.03 СЗ 9
{10}
н/о н/о -11.8 -13.2 89 -22 -22 983.9 982.3
20 24.03 СЗ 8
{10}
н/о н/о -11.4 -12.8 89 -21 -21 983.7 982.1
21 24.03 СЗ 8
{9}
н/о н/о -11.0 -12.3 90 -21 -21 983.7 982.1
22 24.03 СЗ 9
{10}
н/о н/о -10.6 -11.9 90 -21 -21 983.4 981.8
23 24.03 СЗ 9
{11}
н/о н/о -10.4 -11.7 90 -21 -21 982.9 981.3
00 25.03 СЗ 9
{11}
н/о н/о -9.5 -10.7 91 -20 -20 982.4 980.8
01 25.03 СВ 8
{11}
н/о н/о -5.7 -6.5 94 -15 -15 982.7 981.1
02 25.03 СВ 9
{10}
н/о н/о -5.6 -6.4 94 -15 -15 983.3 981.8
03 25.03 СВ 9
{10}
н/о н/о -5.8 -6.6 94 -15 -15 983.8 982.2
04 25.03 СВ 8
{10}
н/о н/о -5.7 -6.5 94 -15 -15 984.3 982.8
05 25.03 СВ 9
{11}
н/о н/о -5.3 -6.1 94 -15 -15 984.7 983.1
06 25.03 СВ 10
{12}
н/о н/о -5.4 -6.4 93 -15 -15 985.5 984.0 -12.0 -5.2
07 25.03 СВ 10
{12}
н/о н/о -5.4 -6.4 93 -15 -15 986.7 985.1
08 25.03 СВ 9
{13}
н/о н/о -5.5 -6.5 93 -15 -15 987.6 986.0
09 25.03 СВ 10
{11}
н/о н/о -5.1 -6.1 93 -15 -15 988.4 986.8
10 25.03 С 14
{16}
н/о н/о -7.1 -8.4 90 -19 -19 989.2 987.6
11 25.03 С 17
{21}
н/о н/о -8.9 -10.1 91 -22 -22 990.0 988.5
12 25.03 С 17
{21}
н/о н/о -9.4 -10.6 91 -22 -22 991.4 989.8
13 25.03 С 16
{19}
н/о н/о -9.7 -11.0 90 -22 -22 992.6 991.0
14 25.03 С 17
{19}
н/о н/о -9.7 -11.0 90 -23 -23 993.6 992.0
15 25.03 С 16
{20}
н/о н/о -11.2 -12.6 89 -24 -24 994.7 993.1
16 25.03 СВ 15
{19}
н/о н/о -12.1 -13.5 89 -25 -25 995.5 993.9
17 25.03 С 16
{19}
н/о н/о -13.7 -15.3 88 -28 -28 996.4 994.8
18 25.03 С 16
{20}
н/о н/о -14.9 -16.5 88 -29 -29 997.6 996.0 -14.9 -5.1
19 25.03 С 17
{20}
н/о н/о -15.7 -17.4 87 -31 -31 опасность
обморожения
998.3 996.6
20 25.03 С 16
{19}
н/о н/о -15.1 -16.8 87 -30 -30 999.2 997.5
21 25.03 С 14
{18}
н/о н/о -15.5 -17.2 87 -29 -29 1000.6 998.9
22 25.03 С 15
{17}
н/о н/о -16.5 -18.3 86 -31 -31 опасность
обморожения
1001.6 999.9
23 25.03 С 13
{16}
н/о н/о -16.4 -18.3 85 -30 -30 1002.2 1000.5
00 26.03 С 15
{20}
н/о н/о -17.1 -19.1 84 -32 -32 опасность
обморожения
1002.5 1000.9
01 26.03 С 13
{15}
н/о н/о -17.7 -19.7 84 -32 -32 опасность
обморожения
1003.3 1001.6
02 26.03 С 14
{14}
н/о н/о -17.7 -19.7 84 -32 -32 опасность
обморожения
1003.9 1002.2
03 26.03 С 10
{14}
н/о н/о -18.3 -20.2 85 -31 -31 опасность
обморожения
1004.9 1003.2
04 26.03 СВ 10
{12}
н/о н/о -18.4 -20.5 83 -31 -31 опасность
обморожения
1005.2 1003.5
05 26.03 С 11
{14}
н/о н/о -18.9 -21.1 83 -33 -33 опасность
обморожения
1005.2 1003.5
06 26.03 С 11
{15}
н/о н/о -19.1 -21.3 83 -33 -33 опасность
обморожения
1005.9 1004.2 -19.1 -14.9
07 26.03 С 9
{12}
н/о н/о -19.2 -21.5 82 -32 -32 опасность
обморожения
1006.2 1004.5
08 26.03 С 9
{10}
н/о н/о -18.9 -21.2 82 -32 -32 опасность
обморожения
1006.5 1004.9
09 26.03 С 6
{10}
н/о н/о -19.3 -21.6 82 -30 -30 1007.1 1005.4
10 26.03 СВ 6
{8}
н/о н/о -19.2 -21.5 82 -30 -30 1007.7 1006.0
11 26.03 СВ 6
{7}
н/о н/о -19.5 -21.8 82 -30 -30 1007.7 1006.0
12 26.03 СВ 6
{12}
н/о н/о -19.9 -22.2 82 -31 -31 опасность
обморожения
1007.9 1006.2
13 26.03 СВ 4
{6}
н/о н/о -19.9 -22.1 83 -29 -29 1008.1 1006.4
14 26.03 СВ 5
{5}
н/о н/о -19.8 -21.8 84 -30 -30 1007.8 1006.1
15 26.03 В 5
{6}
н/о н/о -19.7 -21.8 83 -30 -30 1007.5 1005.8
16 26.03 СВ 3
{5}
н/о н/о -20.0 -22.0 84 -28 -28 1007.7 1006.1
17 26.03 В 3
{3}
н/о н/о -20.4 -22.3 85 -28 -28 1007.4 1005.7
18 26.03 В 3
{6}
н/о н/о -20.6 -22.6 84 -28 -28 1007.4 1005.7 -20.6 -18.8

 

Местоположение метеостанции Конгсёйа (Норвегия): широта 78.93 долгота 28.89 высота над уровнем моря 20 м.

В архиве по умолчанию представлена погода на Конгсёйа за последнюю неделю. Архивные данные за месяц целиком и за предыдущие месяцы, начиная с января 2011 года, Вы можете получить, выбрав интересующий диапазон дат из раскрывающегося списка и нажав кнопку "Ввод!".


*Определитесь, кто Вы:
робот инопланетянин человек

Внимание! Время в таблицах - всемирное. Для получения местного времени необходимо прибавить поправку, которая равна 1 ч.

Смотрите также архив погоды в соседних городах и на ближайших метеорологических станциях:

Погода на Острове Белый (Норвегия) (137 км)
Погода на Эдже (Норвегия) (153 км)
Погода на Острове Карла XII (Норвегия) (206 км)
Погода в Пирамиде (Норвегия) (272 км)
Погода в Хопене (Норвегия) (284 км)
Погода на Верлегенхукен (Норвегия) (284 км)
Погода в Свальбард аэропорту (Норвегия) (303 км)
Погода в Баренцбурге (Шпицберген, Россия) (337 км)
Погода на Акселойа (Норвегия) (346 км)
Погода в Ню-Олесунн (Норвегия) (361 км)

Пояснения к столбцам:

Ветер - указаны скорость ветра в м/с - средняя за 10 мин, порывы в срок и между сроками (в фигурных скобках) и направление, откуда дует ветер: С - северный, СВ - северо-восточный, В - восточный, ЮВ - юго-восточный, Ю - южный, ЮЗ - юго-западный, З - западный, СЗ - северо-западный.
Видимость - горизонтальная дальность видимости в метрах или километрах. При видимости от 1 до 10 км при отсутствии осадков обычно наблюдается дымка, при ухудшении видимости до 1 км и менее - туман. В сухую погоду видимость может ухудшаться дымом, пылью или мглою.
Явления - указаны атмосферные явления, наблюдавшиеся в срок или в последний час перед сроком; фигурными скобками обозначены явления, наблюдавшиеся между сроками (за 1-3 часа до срока); квадратными скобками обозначены град или гололедные отложения с указанием их диаметра в мм.
Облачность - указаны через наклонную черту общая и нижняя облачность в баллах и высота нижней границы облаков в метрах; квадратными скобками обозначены формы облаков: Ci - перистые, Cs - перисто-слоистые, Cc - перисто-кучевые, Ac - высококучевые, As - высокослоистые, Sc - слоисто-кучевые, Ns - слоисто-дождевые, Cu - кучевые, Cb - кучево-дождевые. Подробнее классификацию облаков см. в Атласе облаков (PDF).
T - Температура воздуха - температура, измеренная на высоте 2 м над землей.
Td - Температура точки росы - температура, при понижении до которой содержащийся в воздухе водяной пар достигнет насыщения.
f - Относительная влажность воздуха - влажноcть воздуха, измеренная на высоте 2 м над землей.
Te - Эффективная температура - температура, которую ощущает одетый по сезону человек в тени. Характеристика душности погоды. При расчете учитывается влияние влажности воздуха и скорости ветра на теплоощущения человека.
Tes - Эффективная температура на солнце - температура, которую ощущает человек, с поправкой на солнечный нагрев. Характеристика знойности погоды. Зависит от высоты солнца над горизонтом, облачности и скорости ветра. Ночью, в пасмурную погоду, а также при ветре 12 м/с и более поправка равна нулю.
P - Атмосферное давление - приведенное к уровню моря атмосферное давление.
Po - Атмосферное давление - измеренное на уровне метеостанции атмосферное давление.
Tmin - Минимальная температура - минимум температуры воздуха на высоте 2 м над землей.
Tmax - Максимальная температура - максимум температуры воздуха на высоте 2 м над землей.
R - Количество осадков - Количество выпавших осадков за период времени, мм. При наведении курсора мыши на число - период времени, за который выпало указанное количество осадков.
R24 - Количество осадков - Количество выпавших осадков за 24 часа, мм.
S - Снежный покров - Высота снежного покрова, см. При наведении курсора мыши на число - состояние снежного покрова и степень покрытия местности в баллах.